Flag for Netherlands Weather past 2 weeks in Dordrecht, Netherlands

Now
63 °F

Overcast.


Feels Like: 63 °F
Forecast: 60 / 76 °F
Wind: 2 mph from Northeast

Location: Rotterdam Zestienhoven Airport

Current Time: Jul 25, 2014 at 11:26:42 PM

Latest Report: Jul 25, 2014 at 10:55 PM


Visibility: N/A

Pressure: 29.95 "Hg

Humidity: 88%

Dew point: 59 °F

Location of DordrechtLocation

Historic Weather in Dordrecht — Graph

°F

Dordrecht temperature yesterday

Maximum temperature yesterday: 81 °F (at 2:55 PM)
Minimum temperature yesterday: 63 °F (at 4:25 AM)
Average temperature yesterday: 72 °F

Past Weeks' High & Low Weather Summary

 TemperatureHumidityPressure
High95 °F (Jul 19, 3:25 PM)100% (Jul 11, 3:25 AM)30.18 "Hg (Jul 11, 3:25 AM)
Low55 °F (Jul 16, 2:55 AM)26% (Jul 19, 3:25 PM)29.71 "Hg (Jul 13, 2:55 PM)
Average69 °F77%29.97 "Hg
* Reported Jul 10 10:25 PM — Jul 25 10:25 PM, Dordrecht, Weather by CustomWeather, © 2014

Note: Actual official high and low records may vary slightly from our data, if they occured in-between our weather recording intervals... More about our weather records

Advertising

Dordrecht weather history for previous 24 hours

 ConditionsComfort  
Time TempWeatherWind HumidityBarometerVisibility
10:25 PM
Jul 25
64 °FMore clouds than sun.2 mph88%29.95 "HgN/A
9:55 PM64 °FOvercast.5 mph83%29.95 "HgN/A
9:25 PM66 °FMostly cloudy.6 mph78%29.95 "HgN/A
8:55 PM66 °FMostly cloudy.9 mph78%29.95 "HgN/A
8:25 PM66 °FMostly cloudy.9 mph83%29.95 "HgN/A
7:55 PM68 °FScattered clouds.9 mph78%29.95 "HgN/A
7:25 PM66 °FPartly sunny.9 mph83%29.95 "HgN/A
6:55 PM68 °FBroken clouds.12 mph78%29.95 "HgN/A
6:25 PM66 °FOvercast.10 mph83%29.95 "HgN/A
5:55 PM68 °FPartly sunny.10 mph78%29.95 "HgN/A
5:25 PM68 °FPartly sunny.9 mph83%29.95 "HgN/A
4:55 PM66 °FLots of rain. More clouds than sun.14 mph83%29.98 "HgN/A
4:25 PM70 °FPassing clouds.10 mph69%29.98 "HgN/A
3:55 PM70 °FClear.12 mph69%29.98 "HgN/A
3:25 PM70 °FPartly sunny.10 mph69%29.98 "HgN/A
2:55 PM70 °FClear.13 mph64%29.98 "HgN/A
2:25 PM70 °FClear.14 mph64%29.98 "HgN/A
1:55 PM70 °FClear.16 mph64%29.98 "HgN/A
1:25 PM72 °FPartly sunny.12 mph61%29.98 "HgN/A
12:55 PM73 °FPassing clouds.12 mph57%29.98 "HgN/A
12:25 PM73 °FClear.9 mph57%30.01 "HgN/A
11:55 AM73 °FClear.10 mph61%30.01 "HgN/A
11:25 AM73 °FClear.8 mph57%30.01 "HgN/A
10:55 AM72 °FClear.7 mph61%30.01 "HgN/A
10:25 AM70 °FClear.7 mph69%30.01 "HgN/A
9:55 AM68 °FClear.9 mph69%30.01 "HgN/A
9:25 AM70 °FClear.10 mph64%30.01 "HgN/A
8:55 AM70 °FClear.9 mph64%30.01 "HgN/A
8:25 AM66 °FClear.6 mph73%30.01 "HgN/A
7:55 AM66 °FClear.8 mph73%30.01 "HgN/A
7:25 AM64 °FClear.8 mph78%30.01 "HgN/A
6:55 AM64 °FClear.5 mph78%30.01 "HgN/A
6:25 AM64 °FPassing clouds.3 mph78%29.98 "HgN/A
5:55 AM63 °FClear.7 mph83%30.01 "HgN/A
5:25 AM63 °FClear.3 mph83%29.98 "HgN/A
4:55 AM63 °FClear.6 mph83%30.01 "HgN/A
4:25 AM61 °FClear.5 mph88%30.01 "HgN/A
3:55 AM64 °FMild.6 mph78%30.01 "HgN/A
3:25 AM63 °FClear.7 mph77%30.01 "HgN/A
2:55 AM64 °FClear.7 mph73%30.01 "HgN/A
2:25 AM64 °FClear.8 mph78%30.01 "HgN/A
1:55 AM64 °FClear.8 mph78%30.01 "HgN/A
1:25 AM64 °FClear.7 mph83%30.01 "HgN/A
12:55 AM66 °FClear.7 mph78%30.01 "HgN/A
12:25 AM66 °FMild.8 mph78%30.01 "HgN/A
11:55 PM
Jul 24
66 °FMild.10 mph78%30.01 "HgN/A
11:25 PM70 °FClear.8 mph69%30.01 "HgN/A
Weather by CustomWeather, © 2014

See weather overviewHow to use our weather pages